Location: Unspecified
(0.0000°N, 0.0000°E)
Time: 19:46:03
(UTC+00:00)

CZ-2C R/B - Visible Passes

Search period start: 13 December 2025 00:00
Search period end: 23 December 2025 00:00
Orbit: 470 x 532 km, 97.5° (Epoch: 12 December)

Date Brightness Start Highest point End Pass type
(mag) Time Alt. Az. Time Alt. Az. Time Alt. Az.
14 Dec ? 19:10:39 10° WSW 19:11:54 11° W 19:13:10 10° W visible
15 Dec ? 05:27:07 10° ENE 05:28:57 13° E 05:30:46 10° SE visible
15 Dec ? 18:49:46 10° SSW 18:52:40 23° W 18:55:36 10° NW visible
16 Dec ? 18:29:56 10° S 18:33:25 50° W 18:36:57 10° NNW visible
19 Dec ? 19:07:16 10° SW 19:09:04 13° W 19:10:52 10° WNW visible
20 Dec ? 05:24:50 10° E 05:26:04 11° E 05:27:18 10° ESE visible
20 Dec ? 18:46:38 10° SSW 18:49:43 27° W 18:52:52 10° NW visible
21 Dec ? 18:26:48 10° S 18:30:23 58° W 18:34:01 10° NNW visible
